Overview Statistics Trail Chart Weather Telemetry Raw packets
 

This is the latest recevied weather packets stored in our database for station/object KD5YCY. If no packets are shown the sender has not sent any weather packets the latest 10 day(s).

<< 563 564 565 566 >>
Time Temp. Humidity Pressure Rain* Wind** Luminosity Snow
1787715525 24.44° C 70% 945.8 hPa 17.78 mm - - -
1787715465 24.44° C 69% 945.7 hPa 17.53 mm - - -
1787715405 25° C 69% 945.7 hPa 15.75 mm - - -
1787715345 25° C 68% 945.7 hPa 15.75 mm - - -
1787715284 25° C 67% 945.7 hPa 15.24 mm - - -
1787715261 25° C 65% 945.6 hPa 14.73 mm - - -
1787715159 25° C 64% 945.6 hPa 14.73 mm - - -
1787715099 25° C 63% 945.6 hPa 14.22 mm - - -
1787715039 25° C 61% 945.6 hPa 14.22 mm - - -
1787714978 25° C 59% 945.6 hPa 13.97 mm - - -
1787714919 25° C 61% 945.6 hPa 13.97 mm - - -
1787714857 25.56° C 63% 945.6 hPa 13.72 mm - - -
1787714799 25.56° C 63% 945.6 hPa 12.95 mm - - -
1787714735 25.56° C 62% 945.5 hPa 12.7 mm - - -
1787714673 25.56° C 59% 945.5 hPa 12.7 mm - - -
1787714609 25.56° C 60% 945.5 hPa 12.19 mm - - -
1787714548 25.56° C 57% 945.5 hPa 11.68 mm - - -
1787714488 25.56° C 59% 945.5 hPa 10.92 mm - - -
1787714428 25.56° C 57% 945.4 hPa 10.92 mm - - -
1787714366 25.56° C 63% 945.4 hPa 10.92 mm - - -
1787714303 25.56° C 60% 945.5 hPa 9.91 mm - - -
1787714241 25.56° C 66% 945.4 hPa 9.65 mm - - -

* Rain latest hour (hover to see other rain measurements)
** Current wind speed in m/s (hover to see current wind gust speed)